COSMOS 1275 DEB

Satellite information

Favourite Embed

Satellite Type and Status

DEBRISIN ORBIT

Key statistics

Satellite COSMOS 1275 DEB at a glance.

Uptime

16220

Days in orbit

Revolutions

≈ 14.0

Per day

Orbit

LEO

Low Earth Orbit

Inclination

83.1

Latest

Satellite identification and parameters

Extended collection of information and parameters for COSMOS 1275 DEB.

Object identification

Identified? True

Debris? True

Object name: COSMOS 1275 DEB

International designator: 1981-053FE

Object number (NORAD): 13458

Object ID (CCSDS): 13458

Country: COMMONWEALTH OF INDEPENDENT STATES (CIS)

Current information (Y/N): Y

RCS size: MEDIUM

Orbital parameters

Period: 102.701 minutes

Inclination: 83.0917 deg

SMA: 7264.555 km

Apoapsis: 904.916 km

Periapsis: 867.923 km

RAAN: 335.6272 deg

Eccentricy: 0.00254613

Argument of periapsis: 147.2396 deg

Mean anomaly: 213.0361 deg

Mean motion: 14.0213321 rev/day

Mean motion (dot): 0.00001356 rev/day2

B* drag term: 0.00087424653 1/REarth

Two-line elements (TLE)

Creation date: Oct. 31, 2025, 3 a.m.

Reference frame: TEME

Reference center: EARTH

Epoch: Oct. 30, 2025, 12:42 p.m. UTC

TLE line 0: 0 COSMOS 1275 DEB

TLE line 1: 1 13458U 81053FE 25303.52953457 .00001356 00000-0 87425-3 0 9995

TLE line 2: 2 13458 83.0917 335.6272 0025461 147.2396 213.0361 14.02133210226833

Live tracking on map

Real-time ground track for satellite COSMOS 1275 DEB.

In-orbit conjunctions

A list of the most updated potential collisions computed for object COSMOS 1275 DEB.

Target Orbit TCA Probability of collision Miss distance Type
FENGYUN 1C DEB SSO 2025-09-20 03:41:04 0.0001119035 116.0 (m) DEBRIS
THORAD AGENA D DEB SSO 2025-03-26 17:13:17 0.0002018788 168.0 (m) DEBRIS
FENGYUN 1C DEB SSO 2024-12-01 09:32:44 0.0001049409 406.0 (m) DEBRIS
SL-14 DEB LEO 2024-10-18 06:33:22 0.0002863529 54.0 (m) DEBRIS

Associated space launch

Navigation satellite providing location information for the Tsiklon-B navigation system

COSMOS 1275 DEB was lifted into orbit during the mission ‘Kosmos-3M | Parus 27’, on board a Kosmos-3M space rocket.

The launch took place on June 4, 1981, 3:41 p.m. from 132/2.

For more information about the launch, click the button.

Launch to space Kosmos-3M | Parus 27
Kosmos-3M | Parus 27

Agency: N/A

Status: Launch Successful

Launch date: June 4, 1981, 3:41 p.m. UTC

Rocket: Kosmos-3M

Launch pad: 132/2

Location: Plesetsk Cosmodrome, Russian Federation

...

Latest news about this satellite

There are no fresh news available about this satellite. Check back as we update our databases every day.


Newsletter sign-up

Weekly statistics, charts and insights to help you stay on top of the space industry.